Showing default

SSTL S1-4, 43618

Orbit data source: Space-Track

SSTL S1-4, 43618 is a payload satellite owned by SSTL (Astrium) (UK) in SSO that was launched on Sun, 16 Sep 2018 UTC via a PSLV launch vehicle from the Sirharikota (SRI). Payload-class satellites include a variety of spacecraft equipped with specific instruments for various scientific and technological missions. These include communications satellites like Starlink; space stations such as the ISS; scientific satellites like the Hubble; Earth observation satellites from companies like Planet Labs, Umbra, and HawkEye 360; GPS; miniature CubeSats for education and research; and military/defense satellites.

Loading next visibility...
Identifier
43618, 2018-071A
Orbit
SSO
Country
Flag of UKUK
Related business
Manufacturer
SSTL (Astrium)
Mission
Operational Commercial Imaging
Bus & Motor
SSTL-300S1, Unknown motor
Mass
444 kg wet, 400 kg dry
Launch date (UTC)
Icon of a cake. It is the launch day of the satellite!2018-09-16 (7 years ago)
Launch vehicle
PSLV
Launch site
Sirharikota (SRI)
Object type
Payload
Rocket body
Debris
Shape & HBR
Hept Cone + Cyl, 1.3 m
Radar Cross Section
2.356 m², Large (>1 m²)

Expand to show TLE details & history
Last TLE update: 23 hours ago

TLE from 23 hours ago
0 SSTL S1-4
1 43618U 18071A   25258.75720181  .00000271  00000-0  28888-4 0  9990
2 43618  97.5393 136.0901 0001937  46.4255 313.7127 14.96177238381909
Epoch: 2025-09-15T18:10Z
TLE epoch observation values (Epoch: 2025-09-15T18:10:22.236Z)
Latitude
-0.00005°
Longitude
-131.45982°
Altitude
580.844 km
Speed
7.571 km/s
True Right ascension
09h 04m 21s
True Declination
0° 00' 00"
Sunlit
Object was in daylight at epoch
Visualization orbit readout
Latitude
Unknown
Longitude
Unknown
Altitude
Unknown
Speed
Unknown
Apparent Right ascension
Unknown
Apparent Declination
Unknown
Sunlit
N/A
Visualization observer readout
Local Sidereal Time
09:28:18
Azimuth
Unknown
Elevation
Unknown
Doppler factor
Unknown
Orbital elements
Apogee altitude
577.071 km
Perigee altitude
574.378 km
Semi-major axis
6,953.861 km
Eccentricity
0.00019
Inclination
97.5393°
RAAN
136.0901°
Arg. of periapsis
46.4255°
True anomaly
313.69665°
Mean anomaly
313.7127°
Eccentric anomaly
313.70468°
Mean motion
3.74286 °/min
Orbital period
96.18 mins
BSTAR
0.000028888
Loading maneuver chart data...
Computing Atmospheric mass density...
Loading historical data...
Loading historical data...
Loading historical data...
Loading historical data...
Loading historical data...
Loading historical data...
Loading historical data...
Other satellites on launch #71 in the year 2018 (2018-09-16 UTC)

Documentation

Showing up to 5 results
|